Погода в Гоголево

Украина / Полтавская область     49°49′14″N   34°10′45″E
темп.,
°C
ветер,
м/с
пор.,
м/с
влажн.,
%
обл.,
%
осадки,
мм/ч
давл.,
гПа
погр.,
м
12 мая, ср
ср1200:00+7всв61281100 0.0 1018635
03:00+8св61187100 0.1 1017834
06:00+8всв6118663 0.3 1018919
09:00+8всв71286100 0.5 10181078
12:00+10всв697695 0.4 1017923
15:00+9в697989 0.6 1016897
18:00+9в478377 0.4 1014637
21:00+8св3790100 0.9 1013251
13 мая, чт
чт1300:00+6в389694 0.1 1011181
03:00+5юв349837 0.1 1012106
06:00+4ю359943 0.0 1012134
09:00+11ю457571 0.0 1013701
12:00+14ю455798 0.0 10131372
15:00+16ю465316 0.0 10121436
18:00+16ю3560100 0.0 10121113
21:00+12вюв3367100 0.0 101234
14 мая, пт
пт1400:00+12вюв4671100 0.0 101285
03:00+11вюв4983100 0.0 1011153
06:00+12юв3888100 0.1 1010194
09:00+17юв57774 0.4 1010456
12:00+21ююв6764100 0.0 10091129
15:00+23ю6954100 0.0 10081470
18:00+20ю51065100 0.0 1008496
21:00+16ю4118088 0.0 1009195
15 мая, сб
сб1500:00+14юз37895 0.0 1009104
03:00+12зюз339375 0.0 101048
06:00+12ююз2393100 0.0 101158
09:00+17юз457082 0.0 1011540
12:00+20ююз4561100 0.4 10121299
15:00+22юз4653100 1.6 10122039
18:00+19юз357014 1.2 1012450
21:00+14з228474 1.4 101211
16 мая, вс
вс1600:00+13ссз118542 0.0 101310
03:00+12св338996 0.0 101325
06:00+13в338848 0.0 101357
09:00+19всв457118 0.0 1013402
12:00+23в4454100 0.0 10121388
15:00+24в564985 0.0 10101944
18:00+23всв586244 0.0 1009533
21:00+17св61482100 0.4 1008321